Temperature
22 21 21 21 21 20 20 20 20 19 19 19 19 19 18 18 18 18 18 18 18 18 18 18 18 18 18 18 18 17 17 17 17 17 17 16 16 16 16 16 16 16 16
22 22 21 21 21 21 20 20 20 20 19 19 19 19 18 18 18 18 18 18 18 18 18 18 18 18 18 18 17 17 17 17 17 17 17 16 16 16 16 16 16 16 16
22 22 21 21 21 21 21 20 20 20 19 19 19 19 18 18 18 18 18 18 18 18 18 18 18 18 18 18 17 17 17 17 17 17 17 16 16 16 16 16 16 16 16
22 22 22 21 21 21 21 20 20 20 19 19 19 19 19 19 18 18 18 18 18 18 18 18 18 18 18 18 17 17 17 17 17 17 17 17 16 16 16 16 16 16 16
22 22 22 22 22 21 21 20 20 20 20 19 19 19 19 19 18 18 18 18 18 18 18 18 18 18 18 17 17 17 17 17 17 17 17 17 16 16 16 16 16 16 15
23 23 23 22 22 21 21 20 20 20 20 19 19 19 19 19 18 18 18 18 18 18 18 18 18 18 17 17 17 17 17 17 17 17 17 17 16 16 16 16 16 16 16
22 22 22 22 22 22 21 21 20 20 20 20 19 19 19 19 19 18 18 18 18 18 18 18 18 18 18 17 17 17 17 17 17 17 17 17 17 16 16 16 16 15 15
23 23 23 23 22 22 21 21 21 20 20 20 20 19 19 19 19 19 18 18 18 18 18 18 18 18 18 17 17 17 17 17 17 17 17 17 17 16 16 16 16 15 15
23 23 23 23 22 22 22 21 21 20 20 20 20 19 19 19 19 19 18 18 18 18 18 18 18 18 18 18 17 17 17 17 17 17 17 17 17 16 16 16 16 16 15
23 23 23 23 23 22 22 21 21 21 20 20 20 20 19 19 19 19 19 18 18 18 18 18 18 18 18 18 17 17 17 17 17 17 17 17 17 16 16 16 16 16 16
23 23 23 23 23 22 22 22 21 21 21 20 20 20 20 19 19 19 19 19 18 18 18 18 18 18 18 18 17 17 17 17 17 17 17 17 17 16 16 16 16 16 16
23 23 23 22 22 22 22 22 22 21 21 20 20 20 20 19 19 19 19 19 19 18 18 18 18 18 18 18 18 17 17 17 17 17 17 17 16 16 16 16 16 15 15
23 23 23 22 22 22 22 22 22 21 21 20 20 20 20 20 19 19 19 19 19 18 18 18 18 18 18 18 18 17 17 17 17 17 17 17 16 16 16 16 16 15 15
22 23 22 22 22 22 22 22 21 21 20 20 20 20 20 19 19 19 19 19 19 18 18 18 18 18 18 17 17 17 17 17 17 17 17 17 16 16 16 16 16 15 15
22 22 22 22 22 22 22 21 21 21 20 20 20 20 20 19 19 19 19 19 18 18 18 18 18 18 17 17 17 17 17 17 17 17 17 16 16 16 16 15 15 15 15
22 22 22 22 22 22 22 21 21 21 20 20 20 20 20 19 19 19 19 18 18 18 18 18 18 17 17 17 17 17 17 17 17 17 16 16 16 16 16 15 15 15 15
22 22 22 22 22 22 22 21 21 21 20 20 20 20 19 19 19 19 19 18 18 18 18 18 18 17 17 17 17 17 17 16 16 16 16 16 16 16 15 15 15 15 15
22 22 22 22 22 21 21 21 21 20 20 20 20 19 19 19 19 19 18 18 18 18 18 17 17 17 17 17 17 16 16 16 16 16 16 16 16 15 15 15 15 15 14
22 22 22 22 22 21 21 21 20 20 20 20 19 19 19 19 19 18 18 18 18 18 18 17 17 17 17 17 16 16 16 16 16 16 16 16 15 15 15 15 15 14 14
21 22 22 21 21 21 20 20 20 20 20 20 20 19 19 19 19 18 18 18 18 18 17 17 17 17 17 16 16 16 16 16 16 15 15 15 15 15 15 14 14 14 14
21 21 21 21 21 20 20 20 20 20 20 19 19 19 19 19 18 18 18 18 18 17 17 17 17 16 16 16 16 16 16 16 15 15 15 15 15 15 14 14 14 14 14
20 20 20 20 20 20 20 20 20 20 19 19 19 19 18 18 18 18 18 17 17 17 17 17 16 16 16 16 16 16 15 15 15 15 15 15 14 14 14 14 14 14 13
20 20 20 20 20 20 20 20 19 19 19 18 18 18 18 18 18 17 17 17 17 17 17 16 16 16 16 16 15 15 15 15 15 14 14 14 14 14 14 14 13 13 13
19 19 19 19 19 19 19 19 19 19 18 18 18 18 18 18 17 17 17 16 16 16 16 16 16 16 15 15 15 15 14 14 14 14 14 14 14 13 13 13 13 13 13
19 19 19 19 19 18 18 18 18 18 18 18 18 17 17 17 17 17 16 16 16 16 16 16 15 15 15 15 15 14 14 14 14 13 13 13 13 13 13 13 13 13 13
18 18 18 18 18 18 18 18 18 18 18 17 17 17 17 16 16 16 16 15 15 15 15 15 15 15 15 14 14 14 14 14 13 13 13 13 13 13 13 13 13 13 12
Wind_Speed
6 5 5 6 6 5 5 5 5 5 5 3 3 2 1 1 1 1 2 3 3 4 4 2 2 2 3 3 3 4 5 3 3 4 3 4 4 3 2 2 3 3 3
5 5 6 6 6 7 6 6 5 5 5 3 3 2 2 1 1 1 2 2 3 3 3 3 2 3 3 3 3 3 3 2 2 2 2 1 2 3 3 2 2 2 2
9 7 7 7 6 7 7 7 6 6 5 5 4 3 3 2 2 1 1 1 2 2 3 3 3 3 3 3 3 4 4 3 1 1 2 2 1 0 2 2 1 1 1
8 8 8 7 8 8 7 6 6 6 5 6 5 4 3 2 2 1 1 1 1 2 3 3 3 3 3 4 3 3 3 3 2 1 1 1 2 2 0 1 1 1 0
10 10 10 9 8 7 7 6 6 5 5 6 6 5 3 2 1 1 2 1 1 1 1 3 3 3 3 3 3 3 3 2 2 2 1 2 2 1 2 1 1 1 1
10 9 8 7 7 7 7 7 6 5 5 6 5 5 5 4 4 2 2 1 0 1 0 2 2 2 3 3 3 3 4 3 3 2 2 2 2 2 2 2 1 1 1
10 9 9 9 9 9 8 8 8 6 6 6 5 5 6 6 5 4 3 2 1 1 1 1 1 2 2 3 3 3 3 3 3 3 2 2 2 2 3 3 1 1 1
10 10 11 10 10 10 9 9 8 7 7 6 6 5 5 5 4 4 4 3 3 2 2 2 2 2 2 3 3 2 2 2 3 3 2 2 2 3 3 3 3 1 0
9 10 10 10 10 10 10 10 9 7 7 6 5 4 5 5 4 4 3 3 2 2 2 2 2 2 2 2 3 2 2 2 2 2 2 2 2 2 3 3 3 3 2
7 8 8 9 9 10 9 9 9 8 7 6 6 5 5 5 4 4 4 4 3 2 2 2 2 2 2 2 2 2 2 2 1 1 2 1 1 2 2 3 3 2 3
8 8 8 8 8 8 9 9 8 7 7 7 6 5 5 4 4 4 4 3 3 3 3 3 2 2 2 2 2 2 2 2 1 1 2 1 1 2 2 2 3 2 2
7 7 7 7 8 8 9 9 9 8 8 7 6 5 5 5 4 4 4 3 3 3 3 2 2 2 2 2 3 2 2 2 2 1 2 1 1 2 2 2 3 2 2
5 6 6 7 8 8 8 8 8 8 7 7 7 6 5 6 5 5 4 4 3 3 3 3 3 2 2 2 2 3 2 2 2 2 2 2 3 2 2 2 2 2 2
6 6 6 7 7 8 8 7 7 7 7 7 7 6 6 6 5 4 4 4 4 4 4 3 3 2 2 2 3 3 3 2 2 2 2 2 3 3 3 3 3 3 3
6 7 7 6 6 7 7 7 7 7 7 7 7 6 5 5 4 4 4 4 4 4 4 3 2 2 2 2 3 3 3 2 2 2 2 2 3 4 4 3 4 4 3
7 8 7 7 8 8 8 8 8 8 8 8 7 6 5 5 5 4 4 4 3 3 3 3 3 2 2 3 5 4 3 3 2 2 1 1 2 3 4 5 5 6 5
7 8 9 8 8 8 8 9 8 8 8 7 6 6 5 5 4 4 4 4 3 2 2 3 3 3 2 3 4 5 3 3 2 2 2 1 1 2 2 3 4 5 5
7 7 8 7 7 7 7 7 7 7 8 7 7 6 6 5 4 4 4 3 2 2 2 3 3 3 2 3 4 4 3 2 2 3 3 2 1 2 2 2 2 3 4
6 6 6 6 6 7 7 8 7 7 7 7 7 7 7 6 6 5 5 4 3 3 3 2 2 2 2 3 4 4 2 2 2 2 2 2 2 3 3 3 2 2 3
3 4 5 6 6 6 7 8 7 7 7 7 7 6 7 7 7 6 5 4 3 3 3 2 2 2 2 3 4 5 3 2 1 1 1 2 2 2 4 3 3 3 4
4 5 6 6 5 6 7 8 7 7 6 5 5 6 6 6 6 5 4 4 4 3 3 2 1 1 2 2 3 4 3 3 2 2 1 1 2 3 4 4 4 5 4
4 6 6 5 5 6 7 7 6 5 4 5 5 5 5 5 5 5 4 4 4 4 3 2 1 1 1 2 3 4 4 3 3 3 2 2 3 3 4 3 4 4 3
4 5 6 5 4 5 6 6 4 5 6 6 5 4 4 4 4 5 5 4 4 4 3 3 3 2 2 2 3 4 4 5 3 2 3 2 3 3 2 3 3 3 2
4 4 6 6 4 3 4 5 5 6 7 6 5 4 4 4 3 3 3 4 3 4 3 3 3 3 2 2 2 2 2 3 2 2 1 1 1 1 2 1 1 2 3
3 4 5 6 5 4 4 4 5 7 7 6 5 4 4 4 3 3 2 3 4 5 5 4 4 3 4 5 5 4 3 3 3 1 0 0 0 1 2 2 2 2 2
3 3 3 4 4 4 4 4 4 6 7 5 4 4 3 3 3 3 1 1 1 2 4 5 4 4 5 4 5 5 5 4 4 3 1 2 2 3 3 3 3 3 3
Wind_Direction
210 186 178 169 157 158 156 155 147 144 132 119 114 108 96 80 85 95 120 137 134 131 136 132 116 112 114 117 117 112 106 98 105 96 73 51 55 59 58 76 84 83 89
195 189 175 168 169 171 170 164 164 160 158 147 133 130 122 103 91 80 94 123 139 145 146 144 137 129 124 117 117 116 112 110 108 110 109 72 29 31 43 62 90 87 81
194 193 182 180 176 180 180 180 177 170 164 148 118 97 77 60 64 81 80 84 122 131 134 143 142 140 140 140 142 141 137 145 127 97 132 141 188 18 23 38 57 72 74
193 188 183 184 187 190 182 176 173 170 164 154 150 151 154 167 189 163 138 81 111 132 146 151 149 146 146 148 157 146 143 141 152 110 82 121 146 151 136 11 37 58 83
192 193 191 187 189 183 178 175 168 170 165 164 166 161 162 168 138 116 118 85 44 76 126 148 150 152 157 161 156 146 147 147 155 152 135 102 81 110 154 201 315 357 353
194 195 189 174 176 173 172 170 169 177 171 170 169 170 173 166 154 157 160 143 59 24 86 152 154 158 163 168 167 165 162 161 159 165 167 162 162 170 160 181 226 267 320
190 188 183 181 178 176 178 176 174 181 177 174 177 179 178 175 178 180 179 173 182 208 222 171 163 170 171 170 161 162 172 171 173 180 188 189 189 168 159 159 178 215 297
189 190 189 188 186 182 179 175 180 187 182 180 184 178 173 176 184 185 179 184 197 209 206 174 177 184 170 165 155 159 176 171 180 191 187 189 195 177 171 170 161 158 226
189 190 189 187 185 182 181 181 182 184 185 185 179 176 179 180 185 184 179 186 197 202 190 180 178 179 169 161 154 162 172 167 182 189 186 191 193 184 185 177 173 167 192
185 184 187 188 186 182 180 178 180 183 181 178 183 188 190 189 182 174 183 184 190 189 185 189 184 179 159 152 148 150 154 152 177 182 170 174 182 170 170 173 178 179 179
185 185 185 184 180 172 173 177 178 176 180 182 183 184 186 184 178 179 190 186 184 187 195 184 182 184 171 154 142 142 139 145 152 152 150 165 160 160 170 167 169 166 161
182 177 173 168 172 176 179 181 181 184 187 180 175 183 175 169 178 189 195 183 185 190 196 185 176 186 187 163 156 159 150 151 158 158 144 157 143 145 164 162 163 166 166
167 162 161 168 176 180 183 182 183 186 179 169 172 180 179 177 185 192 186 177 182 187 183 176 183 196 190 172 171 164 155 155 162 160 161 169 145 143 145 143 147 161 154
165 164 170 174 176 178 179 176 178 173 170 168 174 186 192 189 188 184 181 180 180 182 184 179 187 199 196 186 175 160 157 154 156 159 166 174 173 177 170 164 166 159 145
171 177 177 176 171 169 171 171 172 166 165 165 178 194 192 177 173 177 184 187 188 191 186 177 182 193 194 198 181 174 171 170 167 158 171 189 187 181 182 181 177 167 165
182 181 178 174 173 173 173 169 172 168 161 168 181 183 175 171 176 179 180 181 187 186 176 177 179 183 205 188 177 170 169 174 180 187 207 213 203 197 193 189 183 177 178
186 185 184 182 182 181 175 174 176 167 165 172 175 173 172 175 182 176 166 177 185 180 179 188 179 187 201 185 177 174 169 178 191 197 210 232 239 201 198 186 185 197 198
187 190 187 186 183 174 168 165 161 163 168 173 178 177 175 177 173 166 174 180 174 175 187 192 187 185 206 185 177 173 172 188 214 211 207 213 241 221 194 181 192 218 225
186 183 178 174 168 166 165 157 160 164 170 180 185 184 179 177 175 181 188 183 173 183 190 182 183 193 222 194 183 166 164 187 226 224 206 204 222 230 193 177 202 243 262
154 153 147 142 152 162 157 157 164 167 181 190 187 179 176 177 181 187 186 177 175 189 184 179 182 195 224 212 189 172 171 189 227 253 237 216 222 218 186 190 204 239 260
135 139 137 139 150 153 153 158 164 183 193 180 166 165 170 175 176 175 173 168 172 170 169 172 189 204 224 218 200 183 181 199 215 234 251 253 239 236 220 211 221 235 243
124 137 138 139 139 144 147 154 170 176 158 154 156 162 164 170 168 164 167 165 165 165 170 173 223 248 237 216 213 202 204 200 206 236 246 247 231 230 231 228 245 242 227
122 133 135 134 132 139 145 153 167 150 143 143 149 151 147 153 157 163 167 160 164 174 185 191 215 247 251 238 218 211 216 210 210 237 241 246 234 223 229 247 244 214 210
125 129 135 137 143 148 145 158 156 148 142 144 146 145 146 150 150 153 159 165 178 188 192 202 220 236 249 250 233 223 224 223 226 251 261 239 202 208 241 257 226 213 214
124 139 152 153 159 159 154 154 151 146 143 142 140 142 148 152 152 156 172 183 202 201 194 208 209 214 241 248 225 209 218 219 218 191 152 358 298 285 280 272 261 239 226
115 120 134 142 151 154 150 148 150 146 144 146 149 152 150 151 153 150 108 54 194 207 204 207 207 227 231 230 216 213 215 205 174 157 226 250 249 252 256 259 263 256 246
Height
1514 1517 1519 1521 1522 1524 1525 1527 1528 1529 1530 1531 1531 1533 1533 1534 1535 1536 1537 1538 1538 1539 1540 1541 1542 1542 1543 1544 1545 1545 1546 1546 1547 1547 1548 1549 1550 1550 1551 1551 1551 1551 1552
1513 1515 1517 1519 1521 1523 1525 1526 1528 1529 1531 1532 1533 1534 1535 1535 1536 1537 1538 1538 1539 1539 1540 1541 1542 1543 1544 1544 1545 1545 1546 1547 1547 1548 1548 1549 1551 1551 1551 1551 1551 1551 1551
1510 1513 1515 1518 1520 1522 1524 1526 1527 1529 1530 1532 1533 1534 1535 1536 1537 1538 1538 1539 1540 1540 1541 1542 1542 1543 1544 1544 1545 1546 1546 1547 1548 1548 1549 1549 1549 1550 1551 1551 1551 1551 1551
1508 1510 1513 1516 1518 1521 1523 1525 1527 1529 1531 1532 1533 1534 1535 1536 1537 1538 1538 1539 1540 1540 1541 1541 1542 1543 1544 1544 1545 1545 1546 1547 1547 1548 1548 1549 1549 1550 1550 1551 1551 1551 1551
1505 1507 1510 1513 1517 1520 1522 1525 1527 1529 1530 1532 1533 1534 1535 1536 1537 1538 1538 1539 1540 1541 1541 1541 1542 1543 1543 1544 1545 1545 1546 1546 1547 1547 1548 1548 1548 1549 1549 1549 1550 1550 1550
1501 1505 1508 1512 1515 1518 1520 1523 1525 1527 1529 1531 1532 1533 1535 1536 1537 1537 1538 1539 1540 1540 1541 1541 1542 1542 1543 1543 1544 1545 1545 1546 1546 1546 1547 1547 1547 1547 1548 1548 1548 1548 1549
1498 1502 1505 1508 1511 1515 1518 1521 1523 1526 1528 1530 1531 1533 1534 1535 1536 1537 1538 1538 1539 1540 1540 1541 1541 1542 1542 1543 1543 1544 1545 1545 1545 1545 1546 1546 1546 1546 1546 1547 1547 1547 1547
1495 1498 1501 1505 1508 1512 1515 1518 1521 1524 1526 1528 1530 1532 1533 1534 1535 1536 1537 1538 1539 1540 1540 1541 1541 1541 1542 1542 1543 1543 1544 1544 1544 1544 1544 1544 1544 1545 1545 1545 1546 1545 1546
1492 1495 1499 1502 1506 1510 1513 1516 1519 1522 1525 1527 1529 1530 1532 1533 1534 1536 1537 1538 1538 1539 1540 1540 1541 1541 1541 1542 1542 1542 1543 1543 1543 1543 1543 1543 1543 1543 1543 1543 1544 1545 1544
1490 1493 1497 1500 1504 1508 1511 1514 1517 1520 1523 1525 1527 1529 1531 1532 1533 1534 1536 1537 1538 1538 1539 1540 1540 1540 1541 1541 1541 1541 1541 1542 1542 1542 1541 1541 1541 1541 1541 1542 1542 1543 1543
1487 1491 1494 1498 1502 1506 1509 1512 1515 1518 1521 1523 1526 1528 1529 1531 1532 1533 1534 1535 1536 1537 1538 1539 1539 1539 1540 1540 1540 1540 1540 1540 1540 1540 1540 1540 1540 1540 1540 1540 1541 1541 1542
1485 1489 1493 1496 1500 1503 1506 1509 1513 1516 1519 1522 1524 1526 1527 1529 1530 1531 1533 1534 1535 1536 1537 1538 1538 1538 1539 1539 1539 1539 1539 1539 1539 1539 1539 1539 1539 1539 1539 1539 1539 1539 1540
1484 1488 1491 1494 1497 1500 1503 1506 1510 1514 1517 1520 1522 1524 1525 1527 1528 1530 1531 1532 1534 1535 1535 1536 1536 1537 1538 1538 1538 1538 1538 1538 1538 1538 1538 1538 1538 1537 1537 1538 1538 1538 1538
1483 1486 1488 1491 1495 1498 1501 1504 1507 1511 1514 1517 1519 1521 1523 1525 1526 1528 1529 1531 1532 1533 1534 1534 1535 1536 1536 1536 1537 1537 1537 1537 1537 1537 1537 1537 1537 1537 1537 1536 1536 1537 1537
1482 1484 1486 1489 1492 1496 1499 1502 1505 1508 1512 1514 1516 1518 1521 1522 1524 1526 1528 1529 1530 1531 1532 1532 1533 1534 1535 1535 1535 1535 1535 1535 1535 1535 1535 1535 1535 1535 1535 1535 1535 1535 1535
1480 1482 1485 1487 1490 1493 1496 1499 1502 1505 1508 1511 1513 1516 1518 1520 1522 1524 1525 1526 1527 1528 1529 1530 1531 1532 1533 1533 1534 1534 1533 1533 1534 1534 1534 1534 1534 1534 1534 1534 1534 1534 1533
1477 1480 1482 1485 1487 1490 1493 1496 1499 1503 1505 1508 1511 1513 1516 1518 1519 1521 1522 1524 1525 1526 1527 1528 1529 1530 1531 1532 1532 1532 1532 1532 1532 1532 1532 1532 1532 1532 1532 1532 1531 1531 1531
1475 1478 1480 1483 1486 1488 1491 1494 1497 1500 1503 1505 1508 1511 1513 1515 1517 1518 1519 1521 1522 1523 1524 1525 1526 1527 1528 1529 1529 1530 1529 1529 1529 1530 1529 1530 1530 1530 1530 1530 1529 1529 1529
1473 1476 1478 1481 1484 1486 1489 1492 1495 1497 1500 1502 1505 1508 1510 1512 1514 1515 1517 1518 1519 1520 1522 1523 1524 1524 1526 1527 1527 1527 1527 1527 1527 1527 1527 1527 1527 1527 1527 1527 1527 1526 1526
1473 1475 1477 1479 1482 1485 1488 1490 1492 1495 1497 1499 1502 1505 1507 1509 1511 1513 1515 1516 1517 1518 1520 1520 1521 1522 1523 1524 1524 1524 1524 1524 1524 1524 1524 1524 1524 1524 1524 1524 1523 1523 1523
1471 1473 1475 1477 1480 1483 1485 1488 1490 1492 1495 1498 1500 1502 1505 1507 1509 1511 1512 1514 1515 1516 1517 1518 1519 1519 1521 1521 1522 1522 1522 1522 1521 1521 1521 1521 1521 1521 1521 1520 1520 1520 1520
1469 1471 1474 1475 1478 1481 1483 1485 1487 1491 1494 1496 1498 1500 1502 1504 1506 1508 1509 1511 1512 1513 1514 1515 1516 1517 1518 1518 1518 1518 1519 1518 1518 1518 1518 1518 1518 1518 1517 1517 1517 1517 1517
1468 1470 1473 1475 1477 1479 1481 1483 1486 1489 1491 1494 1496 1498 1500 1501 1503 1505 1506 1507 1509 1510 1511 1511 1512 1513 1514 1515 1515 1515 1515 1515 1515 1515 1514 1514 1514 1514 1514 1513 1513 1513 1512
1466 1469 1472 1474 1476 1478 1480 1483 1485 1487 1489 1491 1493 1495 1497 1499 1500 1502 1504 1505 1506 1507 1507 1508 1509 1510 1511 1511 1512 1512 1511 1511 1511 1511 1511 1511 1510 1510 1510 1510 1509 1508 1508
1466 1468 1470 1472 1475 1478 1480 1482 1484 1485 1487 1488 1491 1493 1495 1497 1498 1500 1501 1502 1504 1505 1505 1506 1507 1507 1507 1508 1509 1508 1508 1508 1508 1508 1507 1507 1507 1506 1506 1505 1505 1504 1503
1465 1468 1470 1472 1474 1476 1478 1480 1482 1484 1485 1487 1489 1491 1493 1494 1496 1497 1498 1500 1502 1503 1503 1504 1504 1504 1505 1505 1505 1505 1505 1505 1505 1504 1504 1504 1503 1503 1502 1501 1500 1500 1499